[[{"header":{"parameterUnit":"m.s-1","parameterCategory":1,"la1":30.2991,"la2":30.254,"lo1":-89.0895,"lo2":-89.0444,"dy":0.0017,"dx":0.0017,"nx":28,"ny":28,"refTime":"2025-02-05T03:00:00:Z","depth":0,"parameterNumber":2,"parameterNumberName":"U-component_of_WINDS"},"data":[0,0,0,0,0,0,0,0,0,0,0,0,0,0,0,0,0,0,0,0,0,0,0,0,0,0,0,0,0,0,0,0,0,0,0,0,0,0,0,0,0,0,0,0,0,0,0,0,0,0,0,0,0,0,0,0,0,0,0.0088,0.0089,0,0.0171,0.0172,0.0173,0.0233,0.0233,0.0234,0.0234,0.0321,0.0323,0.0325,0,0,0,0,0,0,0,0,0,0,0,0,0,-0.0019,-0.0018,0.0088,0.0089,0.009,0.0171,0.0172,0.0173,0.0233,0.0234,0.0234,0.0235,0.0321,0.0323,0.0325,0,0,0,0,0,0,0,0,0,0,0,0,0,0.0042,-0.0017,0.0087,0.0129,0.0134,0.0171,0.0172,0.0173,0.0233,0.0234,0.0234,0.0235,0.032,0.0323,0.0325,0.0328,0,0,0.0334,0.0335,0,0,0,0,0,0,0,0,0.0038,0.0046,0.0122,0.0126,0.0132,0.0192,0.0166,0.0225,0.0233,0.0195,0.0234,0.0235,0.0278,0.0284,0.0298,0.0332,0.0336,0.0334,0.0336,0.0337,0.0338,0,0,0,0,0,0,0,0.0034,0.0042,0.0121,0.0123,0.0129,0.0144,0.0153,0.0178,0.0231,0.0199,0.0203,0.0212,0.0281,0.0295,0.0301,0.0337,0.0334,0.0337,0.0338,0.0339,0.0376,0.0375,0,0,0,0,0,0,0.0023,0.0038,0.0118,0.0123,0.0086,0.0145,0.0156,0.0172,0.0231,0.0241,0.0211,0.0215,0.029,0.0297,0.0304,0.031,0.0337,0.034,0.0341,0.0376,0.0375,0.0375,0,0,0,0,0,0,0.002,0.0029,0.0115,0.0082,0.0094,0.0146,0.0164,0.0173,0.0188,0.0241,0.0251,0.0216,0.0291,0.03,0.0321,0.0314,0.0341,0.0343,0.0377,0.0376,0.0375,0.0322,0,0,0,0,0,0,0.0017,0.0028,0.003,0.0082,0.0096,0.013,0.0164,0.0174,0.0193,0.0198,0.0248,0.0258,0.0292,0.0317,0.0324,0.0318,0.0346,0.0378,0.0377,0.0375,0.0325,0.0319,0.0315,0,0,0,0,0,0.0013,0.0012,0.0029,0.0039,0.0098,0.0129,0.0137,0.0177,0.0192,0.0194,0.0227,0.0256,0.0313,0.0318,0.0327,0.0322,0.0379,0.0377,0.0375,0.0327,0.032,0.0315,0,0,0,0,0,0,-0.0041,0.002,0.004,0.0055,0.0086,0.0139,0.0143,0.0169,0.0197,0.0201,0.0249,0.026,0.0276,0.0301,0.0306,0.0327,0.035,0.035,0.031,0.0304,0.0299,0.0293,0.0348,0,0,0,0,0,-0.0052,-0.0032,0.0021,0.0029,0.0044,0.009,0.0106,0.0133,0.0168,0.0182,0.0217,0.025,0.0275,0.0291,0.0318,0.0329,0.034,0.0329,0.0324,0.032,0.0319,0.0326,0.0322,0.0369,0.0369,0.0369,0,0,-0.0072,-0.0037,-0.0027,0.0019,0.0047,0.0066,0.0101,0.0121,0.0136,0.0185,0.0206,0.0233,0.0273,0.0289,0.0298,0.031,0.0309,0.0318,0.0314,0.0316,0.0324,0.032,0.0316,0.0368,0.0368,0.0369,0,0,-0.0101,-0.0071,-0.0061,-0.0035,0.0006,0.0037,0.0039,0.0088,0.0107,0.0129,0.0166,0.0185,0.0228,0.0254,0.0273,0.0254,0.0281,0.0261,0.0235,0.0241,0.0237,0.0234,0.0226,0.0223,0.026,0.026,0.026,0,-0.0132,-0.0101,-0.0059,-0.0043,-0.0024,0.0021,0.0031,0.0055,0.0102,0.0114,0.0128,0.0182,0.0212,0.0234,0.0229,0.0243,0.0247,0.0255,0.0234,0.0232,0.0229,0.0223,0.022,0.0257,0.0258,0.0258,0.0258,0,-0.0141,-0.0121,-0.0118,-0.0074,-0.0055,-0.0041,0.0002,0.0017,0.0042,0.0072,0.0093,0.0131,0.0165,0.0172,0.0198,0.0197,0.0204,0.0225,0.0249,0.0221,0.0216,0.0213,0.0253,0.0254,0.0255,0.0256,0,0,-0.0201,-0.0135,-0.0135,-0.0115,-0.0067,-0.0051,-0.0035,-0.0003,0.0008,0.004,0.0053,0.0088,0.0107,0.0129,0.0158,0.0163,0.0144,0.0184,0.0185,0.0174,0.0145,0.0128,0.0124,0.0162,0.0162,0.0161,0.0141,0,-0.0222,-0.0193,-0.0156,-0.0139,-0.012,-0.0078,-0.0065,-0.0035,-0.0007,0.0013,0.0044,0.0067,0.0092,0.0105,0.0112,0.0144,0.0138,0.0147,0.0175,0.0176,0.0163,0.0122,0.0105,0.0084,0.0139,0.0139,0.0139,0,-0.0242,-0.0215,-0.0197,-0.0152,-0.0142,-0.0131,-0.0099,-0.008,-0.0045,-0.0025,-0.0002,0.0029,0.0046,0.0067,0.0093,0.0097,0.0111,0.0129,0.0129,0.0133,0.0155,0.0124,0.0078,0.0075,0.0136,0.0136,0.0136,0,-0.0289,-0.0247,-0.0231,-0.0215,-0.0162,-0.0155,-0.0133,-0.0097,-0.008,-0.0052,-0.004,-0.001,0.0006,0.0029,0.0067,0.0079,0.0088,0.0112,0.0104,0.0103,0.0104,0.0104,0.0059,0.0113,0.0113,0.0113,0.0114,0,-0.0316,-0.0307,-0.0251,-0.0241,-0.023,-0.0187,-0.0177,-0.0151,-0.0119,-0.0104,-0.0065,-0.0052,-0.0002,0.0017,0.0047,0.0063,0.007,0.0086,0.0094,0.0083,0.0081,0.0093,0.0095,0.0113,0.0113,0.0113,0.0113,0,-0.0366,-0.0328,-0.0308,-0.026,-0.0247,-0.0241,-0.02,-0.0189,-0.016,-0.0141,-0.0134,-0.0088,-0.0063,-0.0023,0.0014,0.0034,0.0044,0.0058,0.0032,0.0037,0.0026,0.0026,-0.0012,-0.0015,0.0041,0.004,0.004,0,-0.0386,-0.0378,-0.033,-0.0317,-0.0296,-0.0276,-0.0259,-0.0217,-0.0201,-0.0161,-0.0155,-0.0127,-0.0103,-0.0065,-0.0028,0.0,0.0014,-0.0002,0.0019,0.0006,0.0013,0.0012,0.0013,-0.0006,-0.0007,-0.0008,-0.0008,0,-0.0426,-0.0408,-0.0385,-0.0357,-0.0338,-0.0313,-0.0286,-0.0277,-0.0229,-0.0213,-0.0188,-0.0169,-0.0132,-0.0106,-0.0072,-0.0049,-0.0021,-0.0015,-0.0015,-0.0027,-0.0043,-0.0035,0.0019,-0.0014,-0.0014,-0.0013,-0.0013,-0.0013,-0.0462,-0.0453,-0.0418,-0.0395,-0.037,-0.0346,-0.0334,-0.0304,-0.0282,-0.0249,-0.0226,-0.0202,-0.0168,-0.0121,-0.0099,-0.008,-0.0067,-0.0068,-0.0068,-0.0069,-0.0074,-0.0046,-0.0074,-0.0073,-0.0073,-0.0073,-0.0073,0,-0.0501,-0.0477,-0.0455,-0.0419,-0.0401,-0.0377,-0.0346,-0.0332,-0.0312,-0.0283,-0.026,-0.0232,-0.0206,-0.0168,-0.0139,-0.0131,-0.0117,-0.0125,-0.0125,-0.012,-0.0086,-0.0089,-0.0136,-0.0136,-0.0136,-0.0136,-0.0136,-0.0136,-0.0519,-0.0504,-0.0482,-0.0454,-0.043,-0.0407,-0.0392,-0.037,-0.0346,-0.0316,-0.0295,-0.027,-0.0237,-0.0206,-0.0182,-0.0171,-0.0162,-0.0174,-0.016,-0.0128,-0.0123,-0.0117,-0.0119,-0.0172,-0.0172,-0.0195,-0.0196,-0.0196]},{"header":{"parameterUnit":"m.s-1","parameterCategory":1,"la1":30.2991,"la2":30.254,"lo1":-89.0895,"lo2":-89.0444,"dy":0.0017,"dx":0.0017,"nx":28,"ny":28,"refTime":"2025-02-05T03:00:00:Z","depth":0,"parameterNumber":3,"parameterNumberName":"V-component_of_WINDS"},"data":[0,0,0,0,0,0,0,0,0,0,0,0,0,0,0,0,0,0,0,0,0,0,0,0,0,0,0,0,0,0,0,0,0,0,0,0,0,0,0,0,0,0,0,0,0,0,0,0,0,0,0,0,0,0,0,0,0,0,0.7386,0.7386,0,0.7361,0.7361,0.7361,0.7347,0.7347,0.7347,0.7347,0.732,0.732,0.7319,0,0,0,0,0,0,0,0,0,0,0,0,0,0.7421,0.742,0.7386,0.7386,0.7385,0.7361,0.7361,0.7361,0.7347,0.7347,0.7347,0.7347,0.7321,0.732,0.7319,0,0,0,0,0,0,0,0,0,0,0,0,0,0.7402,0.742,0.7386,0.7376,0.7375,0.7361,0.7361,0.7361,0.7347,0.7347,0.7347,0.7347,0.7321,0.732,0.7319,0.7313,0,0,0.7316,0.7315,0,0,0,0,0,0,0,0,0.7403,0.74,0.7378,0.7377,0.7375,0.7357,0.7363,0.7345,0.7347,0.7358,0.7347,0.7347,0.7333,0.7331,0.7326,0.7312,0.7311,0.7316,0.7315,0.7314,0.7314,0,0,0,0,0,0,0,0.7404,0.7401,0.7376,0.7377,0.7376,0.7372,0.7369,0.736,0.7346,0.7357,0.7356,0.7353,0.7332,0.7327,0.7325,0.731,0.7316,0.7315,0.7314,0.7314,0.7291,0.7291,0,0,0,0,0,0,0.7407,0.7403,0.7377,0.7375,0.7389,0.7372,0.7368,0.7363,0.7346,0.7343,0.7353,0.7352,0.7329,0.7326,0.7324,0.7317,0.7314,0.7314,0.7313,0.7291,0.7291,0.7291,0,0,0,0,0,0,0.7408,0.7405,0.7378,0.7389,0.7385,0.7371,0.7365,0.7363,0.7358,0.7343,0.734,0.7351,0.7329,0.7326,0.7316,0.7316,0.7313,0.7312,0.7291,0.7291,0.7291,0.7302,0,0,0,0,0,0,0.7409,0.7405,0.7403,0.7389,0.7384,0.7371,0.7365,0.7362,0.7356,0.7355,0.734,0.7337,0.7328,0.7318,0.7315,0.7314,0.7311,0.7291,0.7291,0.7291,0.7301,0.7302,0.7303,0,0,0,0,0,0.741,0.7407,0.7403,0.74,0.7382,0.7371,0.7368,0.7358,0.7356,0.7354,0.7344,0.7338,0.7316,0.7317,0.7314,0.7313,0.7291,0.7291,0.7291,0.7301,0.7302,0.7303,0,0,0,0,0,0,0.7422,0.7405,0.7401,0.7393,0.7383,0.7369,0.7365,0.736,0.735,0.735,0.7337,0.7334,0.7325,0.7318,0.7319,0.7306,0.7303,0.7302,0.7312,0.7312,0.7313,0.7315,0.731,0,0,0,0,0,0.7423,0.7416,0.7402,0.7396,0.7392,0.738,0.7374,0.7368,0.7357,0.7353,0.7343,0.7332,0.7323,0.7317,0.7308,0.73,0.7297,0.7298,0.7298,0.7299,0.7299,0.7294,0.7294,0.7291,0.7291,0.7291,0,0,0.7427,0.7417,0.7413,0.7398,0.739,0.7383,0.7376,0.7369,0.7363,0.7351,0.7342,0.7334,0.7322,0.7313,0.7309,0.7307,0.7299,0.7299,0.73,0.7299,0.7294,0.7294,0.7295,0.7291,0.7291,0.7291,0,0,0.7429,0.7421,0.7415,0.7407,0.7395,0.7387,0.7386,0.7372,0.7366,0.7357,0.7348,0.7341,0.7325,0.7317,0.731,0.731,0.7303,0.7307,0.731,0.7306,0.7306,0.7307,0.7306,0.7306,0.7306,0.7306,0.7306,0,0.7434,0.7423,0.7413,0.7406,0.74,0.739,0.7384,0.7376,0.7362,0.7358,0.7355,0.7336,0.7327,0.7316,0.7316,0.7311,0.7309,0.7309,0.7307,0.7307,0.7307,0.7307,0.7307,0.7307,0.7307,0.7307,0.7307,0,0.743,0.7423,0.742,0.7407,0.74,0.7394,0.7382,0.7377,0.737,0.7362,0.7353,0.7341,0.733,0.7327,0.732,0.7315,0.7314,0.731,0.7306,0.7308,0.7308,0.7308,0.7308,0.7308,0.7307,0.7307,0,0,0.7439,0.742,0.7419,0.7413,0.7399,0.7393,0.7386,0.7375,0.7371,0.7361,0.7355,0.7342,0.7338,0.733,0.7323,0.7319,0.7319,0.7315,0.7315,0.7316,0.7313,0.7316,0.7316,0.7315,0.7315,0.7315,0.7314,0,0.7439,0.7427,0.7418,0.7409,0.7401,0.7392,0.7385,0.7376,0.7368,0.7361,0.7352,0.7343,0.7338,0.7334,0.733,0.732,0.7318,0.732,0.7309,0.7308,0.7312,0.7316,0.732,0.7319,0.7314,0.7314,0.7314,0,0.7438,0.7429,0.742,0.7406,0.7403,0.7398,0.7387,0.738,0.7369,0.7364,0.7356,0.7348,0.734,0.7337,0.7325,0.7327,0.7321,0.7316,0.7316,0.7314,0.7311,0.7315,0.7319,0.7319,0.7313,0.7313,0.7313,0,0.7445,0.7431,0.7423,0.7418,0.7403,0.74,0.7393,0.7382,0.7376,0.7366,0.7362,0.7352,0.7346,0.7338,0.7327,0.7326,0.7317,0.7313,0.7312,0.7312,0.731,0.7311,0.7314,0.7307,0.7307,0.7307,0.7307,0,0.7447,0.7441,0.7427,0.7422,0.7416,0.7405,0.7398,0.7391,0.7381,0.7374,0.7365,0.7359,0.7346,0.7338,0.7329,0.7321,0.7319,0.7314,0.7312,0.7315,0.7315,0.7311,0.7311,0.7307,0.7307,0.7307,0.7307,0,0.7454,0.7444,0.7435,0.7421,0.7418,0.7414,0.7402,0.7396,0.7388,0.738,0.7378,0.7364,0.7355,0.7344,0.733,0.7324,0.7317,0.7314,0.7321,0.732,0.7319,0.732,0.732,0.732,0.7313,0.7313,0.7313,0,0.7456,0.7451,0.7437,0.7432,0.7426,0.7418,0.7413,0.7401,0.7396,0.7383,0.7379,0.7369,0.736,0.7345,0.7334,0.7324,0.732,0.7321,0.7319,0.7322,0.732,0.7321,0.732,0.7322,0.7322,0.7322,0.7322,0,0.746,0.7455,0.7447,0.7437,0.7431,0.7422,0.7414,0.741,0.7397,0.7391,0.7381,0.7374,0.7361,0.7351,0.7339,0.7332,0.7325,0.7323,0.7322,0.7326,0.733,0.7328,0.7323,0.7323,0.7323,0.7323,0.7323,0.7323,0.7464,0.746,0.745,0.7441,0.7433,0.7425,0.742,0.7411,0.7403,0.7392,0.7386,0.7376,0.7365,0.7349,0.7341,0.7333,0.7331,0.733,0.733,0.733,0.7331,0.7331,0.7331,0.7331,0.7331,0.7331,0.7331,0,0.7468,0.7461,0.7453,0.7441,0.7435,0.7429,0.7419,0.7414,0.7406,0.7396,0.7388,0.7377,0.7367,0.7355,0.7344,0.734,0.7337,0.7338,0.7338,0.7336,0.7333,0.7335,0.7341,0.7341,0.7341,0.7341,0.7341,0.7341,0.7469,0.7462,0.7456,0.7444,0.7437,0.7428,0.7423,0.7415,0.7408,0.7396,0.7388,0.7381,0.737,0.7358,0.7349,0.7346,0.7342,0.7344,0.734,0.7337,0.7337,0.7336,0.7338,0.7344,0.7344,0.7344,0.7344,0.7344]}]]